[[{"header":{"parameterUnit":"m.s-1","parameterCategory":1,"la1":30.2991,"la2":30.254,"lo1":-89.0895,"lo2":-89.0444,"dx":0.0017,"dy":0.0017,"nx":28,"ny":28,"refTime":"2022-11-08T09:00:00:Z","depth":0,"parameterNumber":2,"parameterNumberName":"U-component_of_WINDS"},"data":[0,0,0,0,0,0,0,0,0,0,0,0,0,0,0,0,0,0,0,0,0,0,0,0,0,0,0,0,0,0,0,0,0,0,0,0,0,0,0,0,0,0,0,0,0,0,0,0,0,0,0,0,0,0,0,0,0,0,-0.076,-0.0761,0,-0.0809,-0.0809,-0.081,-0.0844,-0.0845,-0.0845,-0.0845,-0.0895,-0.0896,-0.0897,0,0,0,0,0,0,0,0,0,0,0,0,0,-0.0697,-0.0698,-0.076,-0.0761,-0.0762,-0.0809,-0.0809,-0.081,-0.0844,-0.0845,-0.0845,-0.0845,-0.0895,-0.0896,-0.0897,0,0,0,0,0,0,0,0,0,0,0,0,0,-0.0733,-0.0698,-0.076,-0.0784,-0.0787,-0.0809,-0.081,-0.081,-0.0844,-0.0845,-0.0845,-0.0845,-0.0894,-0.0896,-0.0898,-0.0899,0,0,-0.0902,-0.0903,0,0,0,0,0,0,0,0,-0.073,-0.0735,-0.078,-0.0783,-0.0786,-0.0821,-0.0805,-0.084,-0.0844,-0.0822,-0.0845,-0.0846,-0.087,-0.0874,-0.0882,-0.0902,-0.0904,-0.0903,-0.0904,-0.0904,-0.0905,0,0,0,0,0,0,0,-0.0728,-0.0733,-0.078,-0.0781,-0.0784,-0.0792,-0.0798,-0.0812,-0.0843,-0.0824,-0.0827,-0.0832,-0.0872,-0.088,-0.0883,-0.0905,-0.0903,-0.0904,-0.0905,-0.0906,-0.0928,-0.0927,0,0,0,0,0,0,-0.0722,-0.0731,-0.0778,-0.0781,-0.0758,-0.0793,-0.0799,-0.0809,-0.0843,-0.0849,-0.0832,-0.0834,-0.0877,-0.0882,-0.0885,-0.089,-0.0904,-0.0906,-0.0907,-0.0928,-0.0928,-0.0927,0,0,0,0,0,0,-0.072,-0.0726,-0.0776,-0.0757,-0.0764,-0.0794,-0.0805,-0.081,-0.0819,-0.0849,-0.0855,-0.0835,-0.0878,-0.0883,-0.0896,-0.0892,-0.0907,-0.0908,-0.0929,-0.0928,-0.0928,-0.0899,0,0,0,0,0,0,-0.0718,-0.0725,-0.0726,-0.0756,-0.0765,-0.0786,-0.0804,-0.0811,-0.0821,-0.0824,-0.0854,-0.0859,-0.0879,-0.0893,-0.0897,-0.0895,-0.0909,-0.0929,-0.0928,-0.0928,-0.0901,-0.0898,-0.0895,0,0,0,0,0,-0.0716,-0.0716,-0.0726,-0.0732,-0.0767,-0.0785,-0.079,-0.0813,-0.0821,-0.0822,-0.0842,-0.0858,-0.0891,-0.0894,-0.0899,-0.0897,-0.0929,-0.0929,-0.0928,-0.0902,-0.0898,-0.0895,0,0,0,0,0,0,-0.0686,-0.0721,-0.0732,-0.0742,-0.076,-0.0791,-0.0794,-0.0808,-0.0825,-0.0827,-0.0854,-0.0861,-0.087,-0.0885,-0.0887,-0.09,-0.0912,-0.0912,-0.0891,-0.0888,-0.0885,-0.0882,-0.0911,0,0,0,0,0,-0.068,-0.0692,-0.0722,-0.0728,-0.0737,-0.0763,-0.0773,-0.0788,-0.0808,-0.0816,-0.0837,-0.0855,-0.087,-0.088,-0.0895,-0.0902,-0.0909,-0.0903,-0.09,-0.0898,-0.0898,-0.0903,-0.0901,-0.0924,-0.0924,-0.0925,0,0,-0.0669,-0.0689,-0.0696,-0.0723,-0.0739,-0.0751,-0.077,-0.0782,-0.0791,-0.0818,-0.0832,-0.0847,-0.0869,-0.0879,-0.0884,-0.0891,-0.0893,-0.0897,-0.0895,-0.0896,-0.0902,-0.0899,-0.0897,-0.0924,-0.0924,-0.0924,0,0,-0.0655,-0.0671,-0.0679,-0.0694,-0.0718,-0.0735,-0.0736,-0.0765,-0.0776,-0.0789,-0.081,-0.0821,-0.0846,-0.0861,-0.0872,-0.0862,-0.0877,-0.0866,-0.0853,-0.0857,-0.0855,-0.0853,-0.085,-0.0849,-0.0866,-0.0866,-0.0866,0,-0.0638,-0.0657,-0.068,-0.0691,-0.0702,-0.0726,-0.0734,-0.0747,-0.0775,-0.0782,-0.0789,-0.082,-0.0837,-0.0851,-0.0848,-0.0856,-0.0859,-0.0864,-0.0853,-0.0852,-0.0851,-0.0848,-0.0847,-0.0864,-0.0864,-0.0864,-0.0865,0,-0.0636,-0.0648,-0.0651,-0.0677,-0.0688,-0.0697,-0.0721,-0.073,-0.0744,-0.076,-0.0773,-0.0794,-0.0814,-0.0818,-0.0832,-0.0833,-0.0837,-0.0848,-0.0861,-0.0847,-0.0845,-0.0844,-0.0862,-0.0863,-0.0863,-0.0863,0,0,-0.0606,-0.0643,-0.0644,-0.0656,-0.0683,-0.0693,-0.0702,-0.0721,-0.0728,-0.0746,-0.0755,-0.0774,-0.0785,-0.0797,-0.0813,-0.0816,-0.0807,-0.0827,-0.0828,-0.0823,-0.081,-0.0802,-0.0801,-0.0817,-0.0817,-0.0817,-0.0808,0,-0.0597,-0.0616,-0.0636,-0.0648,-0.066,-0.0682,-0.069,-0.0707,-0.0722,-0.0734,-0.0751,-0.0765,-0.0777,-0.0785,-0.0789,-0.0807,-0.0805,-0.0808,-0.0826,-0.0826,-0.0821,-0.08,-0.0792,-0.0783,-0.0808,-0.0808,-0.0807,0,-0.059,-0.0606,-0.0618,-0.0644,-0.065,-0.0657,-0.0675,-0.0686,-0.0706,-0.0717,-0.073,-0.0746,-0.0757,-0.0767,-0.0782,-0.0784,-0.0792,-0.0802,-0.0802,-0.0806,-0.0817,-0.0804,-0.0781,-0.078,-0.0806,-0.0806,-0.0807,0,-0.0568,-0.0592,-0.0603,-0.0612,-0.0642,-0.0646,-0.0659,-0.0679,-0.0689,-0.0705,-0.0711,-0.0728,-0.0738,-0.075,-0.0771,-0.0776,-0.0784,-0.0796,-0.0793,-0.0793,-0.0795,-0.0795,-0.0775,-0.0798,-0.0798,-0.0798,-0.0798,0,-0.0557,-0.0564,-0.0594,-0.06,-0.0609,-0.0631,-0.0639,-0.0653,-0.067,-0.068,-0.07,-0.0708,-0.0734,-0.0746,-0.0762,-0.0772,-0.0776,-0.0785,-0.0789,-0.0784,-0.0783,-0.0791,-0.0792,-0.0798,-0.0798,-0.0798,-0.0798,0,-0.0534,-0.0555,-0.0568,-0.0594,-0.0601,-0.0606,-0.0629,-0.0636,-0.0651,-0.0663,-0.0667,-0.0692,-0.0706,-0.0727,-0.0748,-0.0759,-0.0767,-0.0773,-0.076,-0.0763,-0.076,-0.076,-0.0745,-0.0744,-0.0767,-0.0766,-0.0766,0,-0.0526,-0.0532,-0.0559,-0.0567,-0.0579,-0.0591,-0.0601,-0.0623,-0.0632,-0.0654,-0.0659,-0.0674,-0.0689,-0.071,-0.073,-0.0746,-0.0754,-0.0747,-0.0756,-0.075,-0.0754,-0.0754,-0.0755,-0.0745,-0.0745,-0.0745,-0.0744,0,-0.0511,-0.052,-0.0534,-0.055,-0.0562,-0.0576,-0.0591,-0.0596,-0.0621,-0.0631,-0.0646,-0.0656,-0.0677,-0.0693,-0.0711,-0.0724,-0.0738,-0.0741,-0.0741,-0.0737,-0.0729,-0.0734,-0.0755,-0.0742,-0.0742,-0.0742,-0.0742,-0.0742,-0.0496,-0.0502,-0.0522,-0.0536,-0.0549,-0.0563,-0.0571,-0.0587,-0.06,-0.0619,-0.063,-0.0644,-0.0663,-0.0689,-0.0701,-0.0712,-0.0718,-0.0718,-0.0719,-0.0719,-0.0717,-0.0726,-0.0715,-0.0715,-0.0715,-0.0715,-0.0715,0,-0.0482,-0.0495,-0.0508,-0.0528,-0.0539,-0.0551,-0.0568,-0.0577,-0.0589,-0.0605,-0.0618,-0.0635,-0.0649,-0.0669,-0.0685,-0.0691,-0.0697,-0.0694,-0.0695,-0.0697,-0.071,-0.0709,-0.0688,-0.0688,-0.0688,-0.0688,-0.0688,-0.0688,-0.0476,-0.0487,-0.0498,-0.0516,-0.0529,-0.0543,-0.0552,-0.0564,-0.0577,-0.0595,-0.0607,-0.062,-0.0637,-0.0655,-0.0669,-0.0674,-0.0679,-0.0674,-0.0682,-0.0694,-0.0696,-0.0699,-0.0698,-0.0675,-0.0675,-0.0668,-0.0668,-0.0668]},{"header":{"parameterUnit":"m.s-1","parameterCategory":1,"la1":30.2991,"la2":30.254,"lo1":-89.0895,"lo2":-89.0444,"dx":0.0017,"dy":0.0017,"nx":28,"ny":28,"refTime":"2022-11-08T09:00:00:Z","depth":0,"parameterNumber":3,"parameterNumberName":"V-component_of_WINDS"},"data":[0,0,0,0,0,0,0,0,0,0,0,0,0,0,0,0,0,0,0,0,0,0,0,0,0,0,0,0,0,0,0,0,0,0,0,0,0,0,0,0,0,0,0,0,0,0,0,0,0,0,0,0,0,0,0,0,0,0,-2.8122,-2.8123,0,-2.8164,-2.8164,-2.8165,-2.8167,-2.8166,-2.8166,-2.8165,-2.8204,-2.8205,-2.8207,0,0,0,0,0,0,0,0,0,0,0,0,0,-2.8042,-2.8043,-2.8122,-2.8123,-2.8123,-2.8164,-2.8165,-2.8165,-2.8167,-2.8166,-2.8166,-2.8165,-2.8203,-2.8205,-2.8207,0,0,0,0,0,0,0,0,0,0,0,0,0,-2.8079,-2.8044,-2.8122,-2.8129,-2.813,-2.8164,-2.8165,-2.8165,-2.8167,-2.8166,-2.8166,-2.8165,-2.8203,-2.8205,-2.8207,-2.8235,0,0,-2.8214,-2.8215,0,0,0,0,0,0,0,0,-2.8077,-2.8082,-2.8128,-2.8129,-2.813,-2.816,-2.815,-2.8188,-2.8167,-2.8153,-2.8165,-2.8165,-2.8189,-2.8193,-2.8202,-2.8237,-2.8238,-2.8214,-2.8215,-2.8216,-2.8217,0,0,0,0,0,0,0,-2.8075,-2.808,-2.8139,-2.8128,-2.813,-2.813,-2.8134,-2.8157,-2.8175,-2.8154,-2.8154,-2.816,-2.819,-2.82,-2.8203,-2.8239,-2.8214,-2.8216,-2.8217,-2.8218,-2.83,-2.8301,0,0,0,0,0,0,-2.8071,-2.8078,-2.8137,-2.814,-2.8102,-2.8132,-2.8137,-2.8151,-2.8174,-2.8177,-2.816,-2.816,-2.8196,-2.82,-2.8204,-2.8239,-2.8216,-2.8218,-2.822,-2.8299,-2.83,-2.8301,0,0,0,0,0,0,-2.8069,-2.8076,-2.8136,-2.8109,-2.8117,-2.8134,-2.815,-2.8152,-2.8162,-2.8179,-2.8182,-2.8167,-2.8196,-2.8201,-2.8228,-2.824,-2.8219,-2.8221,-2.8298,-2.8299,-2.8301,-2.8309,0,0,0,0,0,0,-2.8067,-2.8076,-2.8087,-2.811,-2.8118,-2.816,-2.815,-2.8153,-2.8166,-2.8166,-2.8186,-2.8189,-2.8196,-2.8225,-2.823,-2.8243,-2.8223,-2.8297,-2.8299,-2.83,-2.8307,-2.831,-2.8312,0,0,0,0,0,-2.8064,-2.8086,-2.8088,-2.8095,-2.8133,-2.816,-2.8165,-2.8174,-2.8167,-2.8178,-2.819,-2.8188,-2.8238,-2.8227,-2.8233,-2.8247,-2.8296,-2.8298,-2.83,-2.8306,-2.8309,-2.8312,0,0,0,0,0,0,-2.8063,-2.8089,-2.8091,-2.8121,-2.8139,-2.8161,-2.8175,-2.8177,-2.8195,-2.8194,-2.8202,-2.8207,-2.8234,-2.8243,-2.823,-2.8276,-2.8266,-2.827,-2.8269,-2.8272,-2.8275,-2.8272,-2.8225,0,0,0,0,0,-2.8066,-2.8088,-2.8109,-2.8134,-2.8143,-2.8158,-2.817,-2.8175,-2.8193,-2.82,-2.8213,-2.8229,-2.8248,-2.8261,-2.828,-2.8309,-2.8313,-2.8322,-2.8324,-2.8326,-2.8328,-2.8345,-2.8349,-2.8307,-2.8307,-2.8307,0,0,-2.8073,-2.8091,-2.8103,-2.8134,-2.8148,-2.8169,-2.8163,-2.8185,-2.8201,-2.8202,-2.8229,-2.8239,-2.8258,-2.8287,-2.83,-2.8295,-2.8341,-2.8328,-2.833,-2.8331,-2.8348,-2.8352,-2.8355,-2.8309,-2.8308,-2.8308,0,0,-2.8097,-2.8112,-2.8135,-2.815,-2.8172,-2.8182,-2.8188,-2.821,-2.8217,-2.8244,-2.8246,-2.8264,-2.8298,-2.8311,-2.8322,-2.8353,-2.8353,-2.8359,-2.8372,-2.8388,-2.8392,-2.8395,-2.8406,-2.841,-2.8362,-2.8362,-2.8362,0,-2.8102,-2.8135,-2.8146,-2.8169,-2.8183,-2.8187,-2.821,-2.8224,-2.825,-2.8259,-2.8254,-2.8297,-2.831,-2.8342,-2.835,-2.8359,-2.8365,-2.8356,-2.8391,-2.8394,-2.8397,-2.8407,-2.8412,-2.8362,-2.8362,-2.8362,-2.8362,0,-2.8141,-2.8164,-2.8179,-2.8207,-2.8223,-2.8245,-2.8259,-2.8273,-2.8278,-2.8288,-2.8316,-2.8332,-2.8355,-2.8363,-2.8366,-2.8396,-2.8392,-2.8389,-2.8379,-2.8401,-2.8411,-2.8416,-2.8363,-2.8363,-2.8363,-2.8363,0,0,-2.8163,-2.8198,-2.8204,-2.8217,-2.8243,-2.826,-2.8283,-2.8307,-2.8319,-2.8338,-2.8357,-2.8386,-2.8384,-2.8397,-2.8402,-2.8417,-2.8441,-2.8412,-2.8412,-2.8416,-2.8474,-2.8477,-2.8481,-2.8441,-2.8442,-2.8443,-2.8473,0,-2.8189,-2.8232,-2.8243,-2.8279,-2.8301,-2.8306,-2.8326,-2.8344,-2.8355,-2.8373,-2.8384,-2.8405,-2.84,-2.8408,-2.8423,-2.8435,-2.8452,-2.8433,-2.8458,-2.8459,-2.8453,-2.8487,-2.8489,-2.8517,-2.8477,-2.8478,-2.8478,0,-2.8225,-2.8247,-2.8286,-2.831,-2.832,-2.8338,-2.8361,-2.838,-2.84,-2.8406,-2.8422,-2.8427,-2.845,-2.844,-2.8473,-2.8459,-2.847,-2.8478,-2.8479,-2.8481,-2.847,-2.849,-2.8526,-2.853,-2.8485,-2.8484,-2.8484,0,-2.8238,-2.8277,-2.8305,-2.8316,-2.8346,-2.8358,-2.8371,-2.8391,-2.8405,-2.8425,-2.8434,-2.8456,-2.8468,-2.8485,-2.8495,-2.8487,-2.8527,-2.8517,-2.8533,-2.8532,-2.854,-2.854,-2.8579,-2.8548,-2.8548,-2.8548,-2.8548,0,-2.8266,-2.829,-2.8312,-2.8329,-2.8356,-2.8368,-2.8394,-2.8406,-2.8424,-2.8444,-2.8449,-2.8467,-2.848,-2.8499,-2.8507,-2.8533,-2.8538,-2.8544,-2.8546,-2.8544,-2.8543,-2.8551,-2.8549,-2.8549,-2.8549,-2.8548,-2.8548,0,-2.8284,-2.83,-2.8332,-2.8358,-2.8365,-2.8383,-2.8405,-2.8422,-2.8434,-2.8458,-2.8465,-2.8482,-2.8506,-2.8518,-2.8546,-2.8552,-2.8581,-2.8582,-2.8575,-2.8576,-2.859,-2.8589,-2.8635,-2.8642,-2.8607,-2.8607,-2.8608,0,-2.8301,-2.832,-2.8349,-2.8363,-2.8377,-2.8399,-2.8415,-2.8428,-2.8443,-2.8469,-2.8483,-2.8507,-2.8527,-2.8564,-2.8578,-2.86,-2.8602,-2.8617,-2.8605,-2.8602,-2.8602,-2.8601,-2.8603,-2.8618,-2.8619,-2.8619,-2.8619,0,-2.8329,-2.8337,-2.8359,-2.8385,-2.8404,-2.8424,-2.8444,-2.8455,-2.8472,-2.8489,-2.8514,-2.853,-2.8561,-2.8584,-2.8608,-2.862,-2.8622,-2.8623,-2.8628,-2.8625,-2.8621,-2.8624,-2.8581,-2.8622,-2.8621,-2.8621,-2.8621,-2.8621,-2.8347,-2.8365,-2.8389,-2.8414,-2.8431,-2.845,-2.8468,-2.8483,-2.8504,-2.8531,-2.8538,-2.8564,-2.8585,-2.8617,-2.863,-2.865,-2.8647,-2.8654,-2.8655,-2.8657,-2.8658,-2.8618,-2.8654,-2.8654,-2.8654,-2.8654,-2.8654,0,-2.8376,-2.8392,-2.8416,-2.8445,-2.8465,-2.8468,-2.8491,-2.8507,-2.8531,-2.855,-2.8571,-2.86,-2.8624,-2.8641,-2.8665,-2.8678,-2.868,-2.8684,-2.8682,-2.8685,-2.8659,-2.8653,-2.8682,-2.8682,-2.8682,-2.8682,-2.8682,-2.8682,-2.8394,-2.8423,-2.8434,-2.8472,-2.8488,-2.8516,-2.8528,-2.8546,-2.8562,-2.8595,-2.8616,-2.8628,-2.8646,-2.8672,-2.8694,-2.8698,-2.8707,-2.8711,-2.8715,-2.869,-2.8687,-2.8684,-2.8678,-2.8712,-2.8712,-2.874,-2.874,-2.874]}]]